This is the latest recevied weather packets stored in our database for station/object OK1FET-5. If no packets are shown the sender has not sent any weather packets the latest 10 day(s).
| Time | Temp. | Humidity | Pressure | Rain* | Wind** | Luminosity | Snow |
|---|---|---|---|---|---|---|---|
| 1778049666 | 16.67° C | 73% | 1007.2 hPa | - | - | - | - |
| 1778049372 | 16.67° C | 73% | 1007.1 hPa | - | - | - | - |
| 1778049077 | 16.67° C | 73% | 1007.1 hPa | - | - | - | - |
| 1778048782 | 16.67° C | 72% | 1007 hPa | - | - | - | - |
| 1778048488 | 16.67° C | 72% | 1006.9 hPa | - | - | - | - |
| 1778048193 | 16.67° C | 71% | 1007.1 hPa | - | - | - | - |
| 1778047898 | 16.67° C | 72% | 1007.3 hPa | - | - | - | - |
| 1778047604 | 15.56° C | 75% | 1007.4 hPa | - | - | - | - |
| 1778047309 | 15° C | 75% | 1007.4 hPa | - | - | - | - |
| 1778047014 | 15.56° C | 73% | 1007.3 hPa | - | - | - | - |
| 1778046425 | 16.67° C | 70% | 1007.3 hPa | - | - | - | - |
| 1778046130 | 15.56° C | 72% | 1007.3 hPa | - | - | - | - |
| 1778045836 | 15° C | 72% | 1007.2 hPa | - | - | - | - |
| 1778045541 | 15° C | 72% | 1007.1 hPa | - | - | - | - |
| 1778044658 | 13.89° C | 73% | 1007.2 hPa | - | - | - | - |
| 1778044363 | 14.44° C | 72% | 1007 hPa | - | - | - | - |
| 1778044069 | 14.44° C | 72% | 1006.9 hPa | - | - | - | - |
| 1778043775 | 13.89° C | 72% | 1006.8 hPa | - | - | - | - |
| 1778043480 | 14.44° C | 72% | 1006.8 hPa | - | - | - | - |
| 1778043186 | 14.44° C | 72% | 1006.9 hPa | - | - | - | - |
| 1778042891 | 14.44° C | 73% | 1006.8 hPa | - | - | - | - |
| 1778042597 | 13.33° C | 75% | 1006.8 hPa | - | - | - | - |
| 1778042303 | 12.78° C | 77% | 1006.9 hPa | - | - | - | - |
| 1778042008 | 12.22° C | 78% | 1006.9 hPa | - | - | - | - |
| 1778041714 | 12.78° C | 77% | 1007 hPa | - | - | - | - |
* Rain since midnight (hover to see other rain measurements)
** Current wind speed in m/s (hover to see current wind gust speed)